CZ-6A DEB, 61429

Orbit data source: Space-Track

CZ-6A DEB, 61429 is space debris in LEO originally from a launch on Tue, 06 Aug 2024 UTC launched from the Taiyaun Space Center, China (TSC). Debris objects in space refer to the collection of defunct objects orbiting the Earth. Examples of debris include non-operational satellites, rocket bodies, and fragments generated from explosions, collisions, or faulty payload assembly.

Loading next visibility...
Identifier
61429, 2024-140YW
Orbit
LEO
Country
Flag of CNCN / PRC
Related business
Manufacturer
SAST
Mission
Spacecraft
Bus & Motor
Unknown
Mass
Unknown
Launch date (UTC)
2024-08-06 (1 year ago)
Launch vehicle
Unknown
Launch site
Taiyaun Space Center, China (TSC)
Object type
Payload
Rocket body
Debris
Shape & HBR
Unknown shape, 0.2 m
Radar Cross Section
Small (<0.1 m²)

Expand to show TLE details & history
Last TLE update: 2 days ago

TLE from 2 days ago
0 CZ-6A DEB
1 61429U 24140YW  25312.44256808  .00010290  00000-0  29317-2 0  9999
2 61429  88.9624 296.2048 0148337  45.2386 316.0771 14.38900369 63676
Epoch: 2025-11-08T10:37Z
TLE epoch observation values (Epoch: 2025-11-08T10:37:17.882Z)
Latitude
-0.00003°
Longitude
89.00817°
Altitude
689.677 km
Speed
7.551 km/s
True Right ascension
19h 44m 49s
True Declination
0° 00' 00"
Sunlit
Object was in daylight at epoch
Visualization orbit readout
Latitude
Unknown
Longitude
Unknown
Altitude
Unknown
Speed
Unknown
Apparent Right ascension
Unknown
Apparent Declination
Unknown
Sunlit
N/A
Visualization observer readout
Local Sidereal Time
19:55:55
Azimuth
Unknown
Elevation
Unknown
Doppler factor
Unknown
Orbital elements
Apogee altitude
864.928 km
Perigee altitude
653.186 km
Semi-major axis
7,137.194 km
Eccentricity
0.01483
Inclination
88.9624°
RAAN
296.2048°
Arg. of periapsis
45.2386°
True anomaly
314.88209°
Mean anomaly
316.0771°
Eccentric anomaly
315.48119°
Mean motion
3.59958 °/min
Orbital period
100.01 mins
BSTAR
0.0029317
Loading maneuver chart data...
Computing Atmospheric mass density...

Documentation

Showing up to 5 results
|